Time,TemperatureF,DewpointF,PressureIn,WindDirection,WindDirectionDegrees,WindSpeedMPH,WindSpeedGustMPH,Humidity,HourlyPrecipIn,Conditions,Clouds,dailyrainin,SoftwareType,DateUTC
2013-01-31 00:01:00,41.0,30.0,30.10,NW,306,0.0,27.0,64,0.00,,,1.13,,2013-01-31 06:01:00,
2013-01-31 00:10:00,41.0,30.0,30.10,NW,306,0.0,27.0,64,0.00,,,1.13,,2013-01-31 06:10:00,
2013-01-31 08:02:00,33.0,29.0,30.20,SW,220,0.0,3.0,85,0.00,,,0.00,,2013-01-31 14:02:00,
2013-01-31 08:11:00,33.0,29.0,30.20,SW,220,0.0,3.0,85,0.00,,,0.00,,2013-01-31 14:11:00,
2013-01-31 08:22:00,35.0,31.0,30.22,SW,223,0.0,3.0,85,0.00,,,0.00,,2013-01-31 14:22:00,
2013-01-31 08:31:00,36.0,32.0,30.22,SW,225,0.0,3.0,84,0.00,,,0.00,,2013-01-31 14:31:00,
2013-01-31 08:42:00,36.0,32.0,30.22,SW,225,0.0,3.0,84,0.00,,,0.00,,2013-01-31 14:42:00,
2013-01-31 08:52:00,39.0,33.0,30.23,West,259,1.0,6.0,78,0.00,,,0.00,,2013-01-31 14:52:00,
2013-01-31 09:03:00,41.0,34.0,30.23,West,273,0.0,6.0,76,0.00,,,0.00,,2013-01-31 15:03:00,
2013-01-31 09:12:00,43.0,35.0,30.24,NW,326,1.0,6.0,72,0.00,,,0.00,,2013-01-31 15:12:00,
2013-01-31 09:22:00,43.0,35.0,30.24,NW,326,1.0,6.0,72,0.00,,,0.00,,2013-01-31 15:22:00,
2013-01-31 09:32:00,44.0,34.0,30.25,West,276,1.0,6.0,67,0.00,,,0.00,,2013-01-31 15:32:00,
2013-01-31 09:42:00,44.0,34.0,30.25,West,276,1.0,6.0,67,0.00,,,0.00,,2013-01-31 15:42:00,
2013-01-31 09:52:00,46.0,35.0,30.25,WNW,303,2.0,7.0,65,0.00,,,0.00,,2013-01-31 15:52:00,
2013-01-31 10:03:00,47.0,35.0,30.26,WSW,248,1.0,7.0,63,0.00,,,0.00,,2013-01-31 16:03:00,
2013-01-31 10:12:00,49.0,34.0,30.26,NW,313,1.0,7.0,57,0.00,,,0.00,,2013-01-31 16:12:00,
2013-01-31 10:21:00,49.0,34.0,30.26,NW,313,1.0,7.0,57,0.00,,,0.00,,2013-01-31 16:21:00,
2013-01-31 10:32:00,50.0,34.0,30.26,WNW,282,0.0,9.0,54,0.00,,,0.00,,2013-01-31 16:32:00,
2013-01-31 10:42:00,50.0,34.0,30.26,WNW,282,0.0,9.0,54,0.00,,,0.00,,2013-01-31 16:42:00,
2013-01-31 10:52:00,51.0,34.0,30.25,West,271,3.0,15.0,51,0.00,,,0.00,,2013-01-31 16:52:00,
2013-01-31 11:02:00,52.0,32.0,30.26,West,276,0.0,15.0,47,0.00,,,0.00,,2013-01-31 17:02:00,
2013-01-31 11:12:00,53.0,32.0,30.25,North,6,1.0,15.0,45,0.00,,,0.00,,2013-01-31 17:12:00,
2013-01-31 11:23:00,53.0,32.0,30.25,North,6,1.0,15.0,45,0.00,,,0.00,,2013-01-31 17:23:00,
2013-01-31 11:32:00,54.0,32.0,30.24,NW,323,2.0,15.0,43,0.00,,,0.00,,2013-01-31 17:32:00,
2013-01-31 11:43:00,54.0,32.0,30.24,NW,323,2.0,15.0,43,0.00,,,0.00,,2013-01-31 17:43:00,
2013-01-31 11:53:00,55.0,31.0,30.24,West,265,3.0,15.0,39,0.00,,,0.00,,2013-01-31 17:53:00,
2013-01-31 12:02:00,55.0,31.0,30.24,NNW,336,5.0,15.0,40,0.00,,,0.00,,2013-01-31 18:02:00,
2013-01-31 12:12:00,56.0,31.0,30.24,NNW,335,2.0,15.0,38,0.00,,,0.00,,2013-01-31 18:12:00,
2013-01-31 12:22:00,56.0,31.0,30.24,NNW,335,2.0,15.0,38,0.00,,,0.00,,2013-01-31 18:22:00,
2013-01-31 12:32:00,56.0,29.0,30.23,West,278,1.0,15.0,35,0.00,,,0.00,,2013-01-31 18:32:00,
2013-01-31 12:43:00,56.0,29.0,30.23,West,278,1.0,15.0,35,0.00,,,0.00,,2013-01-31 18:43:00,
2013-01-31 12:52:00,56.0,29.0,30.22,West,260,3.0,15.0,35,0.00,,,0.00,,2013-01-31 18:52:00,
2013-01-31 13:02:00,56.0,30.0,30.22,NNW,327,5.0,15.0,37,0.00,,,0.00,,2013-01-31 19:02:00,
2013-01-31 13:12:00,56.0,30.0,30.22,NNW,327,5.0,15.0,37,0.00,,,0.00,,2013-01-31 19:12:00,
2013-01-31 13:21:00,57.0,28.0,30.21,West,274,2.0,15.0,33,0.00,,,0.00,,2013-01-31 19:21:00,
2013-01-31 13:32:00,57.0,27.0,30.20,WSW,253,2.0,15.0,32,0.00,,,0.00,,2013-01-31 19:32:00,
2013-01-31 13:42:00,57.0,27.0,30.20,WSW,253,2.0,15.0,32,0.00,,,0.00,,2013-01-31 19:42:00,
2013-01-31 13:52:00,58.0,28.0,30.20,NW,318,5.0,15.0,31,0.00,,,0.00,,2013-01-31 19:52:00,
2013-01-31 14:02:00,58.0,28.0,30.20,NW,324,2.0,15.0,31,0.00,,,0.00,,2013-01-31 20:02:00,
2013-01-31 14:11:00,59.0,26.0,30.20,WSW,251,3.0,15.0,28,0.00,,,0.00,,2013-01-31 20:11:00,
2013-01-31 14:21:00,59.0,26.0,30.20,WSW,251,3.0,15.0,28,0.00,,,0.00,,2013-01-31 20:21:00,
2013-01-31 14:31:00,58.0,26.0,30.19,SW,216,3.0,15.0,29,0.00,,,0.00,,2013-01-31 20:31:00,
2013-01-31 14:42:00,59.0,27.0,30.19,WSW,255,0.0,15.0,29,0.00,,,0.00,,2013-01-31 20:42:00,
2013-01-31 14:52:00,59.0,27.0,30.19,WSW,255,0.0,15.0,29,0.00,,,0.00,,2013-01-31 20:52:00,
2013-01-31 15:02:00,60.0,26.0,30.19,WSW,243,2.0,15.0,27,0.00,,,0.00,,2013-01-31 21:02:00,
2013-01-31 15:12:00,59.0,25.0,30.19,WNW,290,1.0,15.0,27,0.00,,,0.00,,2013-01-31 21:12:00,
2013-01-31 15:21:00,59.0,25.0,30.19,WNW,290,1.0,15.0,27,0.00,,,0.00,,2013-01-31 21:21:00,
2013-01-31 15:31:00,59.0,26.0,30.19,WNW,283,1.0,15.0,28,0.00,,,0.00,,2013-01-31 21:31:00,
2013-01-31 15:42:00,59.0,26.0,30.19,WNW,283,1.0,15.0,28,0.00,,,0.00,,2013-01-31 21:42:00,
2013-01-31 15:52:00,59.0,24.0,30.18,West,277,1.0,15.0,26,0.00,,,0.00,,2013-01-31 21:52:00,
2013-01-31 16:02:00,59.0,25.0,30.18,WSW,257,2.0,15.0,27,0.00,,,0.00,,2013-01-31 22:02:00,
2013-01-31 16:11:00,59.0,24.0,30.17,West,281,1.0,15.0,26,0.00,,,0.00,,2013-01-31 22:11:00,
2013-01-31 16:22:00,59.0,24.0,30.17,West,281,1.0,15.0,26,0.00,,,0.00,,2013-01-31 22:22:00,
2013-01-31 16:32:00,60.0,25.0,30.17,WSW,257,1.0,15.0,26,0.00,,,0.00,,2013-01-31 22:32:00,
2013-01-31 16:42:00,60.0,25.0,30.17,WSW,257,1.0,15.0,26,0.00,,,0.00,,2013-01-31 22:42:00,
2013-01-31 16:52:00,59.0,25.0,30.18,West,259,2.0,15.0,27,0.00,,,0.00,,2013-01-31 22:52:00,
2013-01-31 17:02:00,58.0,23.0,30.18,WSW,244,0.0,15.0,26,0.00,,,0.00,,2013-01-31 23:02:00,
2013-01-31 17:12:00,57.0,23.0,30.18,WSW,245,1.0,15.0,27,0.00,,,0.00,,2013-01-31 23:12:00,
2013-01-31 17:21:00,57.0,23.0,30.18,WSW,245,1.0,15.0,27,0.00,,,0.00,,2013-01-31 23:21:00,
2013-01-31 17:31:00,56.0,24.0,30.19,WSW,249,0.0,15.0,29,0.00,,,0.00,,2013-01-31 23:31:00,
2013-01-31 17:42:00,56.0,24.0,30.19,WSW,249,0.0,15.0,29,0.00,,,0.00,,2013-01-31 23:42:00,
2013-01-31 17:52:00,54.0,26.0,30.19,WSW,249,0.0,15.0,33,0.00,,,0.00,,2013-01-31 23:52:00,
2013-01-31 18:01:00,53.0,26.0,30.19,WSW,249,0.0,15.0,35,0.00,,,0.00,,2013-02-01 00:01:00,
2013-01-31 18:11:00,53.0,26.0,30.19,WSW,249,0.0,15.0,35,0.00,,,0.00,,2013-02-01 00:11:00,
2013-01-31 18:21:00,51.0,24.0,30.19,WSW,249,0.0,15.0,35,0.00,,,0.00,,2013-02-01 00:21:00,
2013-01-31 18:31:00,50.0,25.0,30.20,WSW,249,0.0,15.0,37,0.00,,,0.00,,2013-02-01 00:31:00,
2013-01-31 18:42:00,50.0,25.0,30.20,WSW,249,0.0,15.0,37,0.00,,,0.00,,2013-02-01 00:42:00,
2013-01-31 18:52:00,49.0,26.0,30.20,WSW,249,0.0,15.0,40,0.00,,,0.00,,2013-02-01 00:52:00,
2013-01-31 19:01:00,48.0,27.0,30.19,WSW,249,0.0,15.0,44,0.00,,,0.00,,2013-02-01 01:01:00,
2013-01-31 19:11:00,47.0,28.0,30.19,WSW,249,0.0,15.0,47,0.00,,,0.00,,2013-02-01 01:11:00,
2013-01-31 19:21:00,47.0,28.0,30.19,WSW,249,0.0,15.0,47,0.00,,,0.00,,2013-02-01 01:21:00,
2013-01-31 19:31:00,45.0,28.0,30.20,WSW,249,0.0,15.0,51,0.00,,,0.00,,2013-02-01 01:31:00,
2013-01-31 19:42:00,45.0,28.0,30.20,WSW,249,0.0,15.0,51,0.00,,,0.00,,2013-02-01 01:42:00,
2013-01-31 19:52:00,44.0,28.0,30.20,WSW,249,0.0,15.0,53,0.00,,,0.00,,2013-02-01 01:52:00,
2013-01-31 20:01:00,44.0,28.0,30.21,WSW,249,0.0,15.0,54,0.00,,,0.00,,2013-02-01 02:01:00,
2013-01-31 20:11:00,44.0,28.0,30.21,WSW,249,0.0,15.0,54,0.00,,,0.00,,2013-02-01 02:11:00,
2013-01-31 20:21:00,43.0,28.0,30.22,WSW,249,0.0,15.0,54,0.00,,,0.00,,2013-02-01 02:21:00,
2013-01-31 20:31:00,43.0,28.0,30.23,WSW,249,0.0,15.0,55,0.00,,,0.00,,2013-02-01 02:31:00,
2013-01-31 20:41:00,43.0,28.0,30.23,WSW,249,0.0,15.0,55,0.00,,,0.00,,2013-02-01 02:41:00,
2013-01-31 20:52:00,43.0,27.0,30.24,WSW,249,0.0,15.0,52,0.00,,,0.00,,2013-02-01 02:52:00,
2013-01-31 21:01:00,44.0,28.0,30.24,WSW,249,0.0,15.0,54,0.00,,,0.00,,2013-02-01 03:01:00,
2013-01-31 21:12:00,44.0,28.0,30.24,WSW,249,0.0,15.0,54,0.00,,,0.00,,2013-02-01 03:12:00,
2013-01-31 21:21:00,44.0,28.0,30.24,WSW,249,0.0,15.0,53,0.00,,,0.00,,2013-02-01 03:21:00,
2013-01-31 21:32:00,44.0,29.0,30.24,WSW,249,0.0,15.0,55,0.00,,,0.00,,2013-02-01 03:32:00,
2013-01-31 21:41:00,44.0,29.0,30.24,WSW,249,0.0,15.0,55,0.00,,,0.00,,2013-02-01 03:41:00,
2013-01-31 21:52:00,43.0,28.0,30.25,WSW,249,0.0,15.0,55,0.00,,,0.00,,2013-02-01 03:52:00,
2013-01-31 22:02:00,44.0,29.0,30.25,WSW,243,0.0,15.0,55,0.00,,,0.00,,2013-02-01 04:02:00,
2013-01-31 22:11:00,45.0,29.0,30.25,SW,227,0.0,15.0,53,0.00,,,0.00,,2013-02-01 04:11:00,
2013-01-31 22:21:00,45.0,29.0,30.25,SW,227,0.0,15.0,53,0.00,,,0.00,,2013-02-01 04:21:00,
2013-01-31 22:31:00,46.0,29.0,30.26,WSW,240,0.0,15.0,52,0.00,,,0.00,,2013-02-01 04:31:00,
2013-01-31 22:41:00,46.0,29.0,30.26,WSW,240,0.0,15.0,52,0.00,,,0.00,,2013-02-01 04:41:00,
2013-01-31 22:52:00,47.0,29.0,30.26,SSW,208,1.0,15.0,49,0.00,,,0.00,,2013-02-01 04:52:00,
2013-01-31 23:03:00,48.0,29.0,30.27,SW,232,1.0,15.0,47,0.00,,,0.00,,2013-02-01 05:03:00,
2013-01-31 23:11:00,48.0,29.0,30.27,SW,232,1.0,15.0,47,0.00,,,0.00,,2013-02-01 05:11:00,
2013-01-31 23:22:00,49.0,30.0,30.27,SW,236,2.0,15.0,47,0.00,,,0.00,,2013-02-01 05:22:00,
2013-01-31 23:32:00,49.0,30.0,30.26,SW,234,3.0,15.0,47,0.00,,,0.00,,2013-02-01 05:32:00,
2013-01-31 23:41:00,49.0,30.0,30.26,SW,234,3.0,15.0,47,0.00,,,0.00,,2013-02-01 05:41:00,
2013-01-31 23:52:00,49.0,30.0,30.26,SSW,209,1.0,15.0,47,0.00,,,0.00,,2013-02-01 05:52:00,